This is the latest recevied weather packets stored in our database for station/object KF0JJO. If no packets are shown the sender has not sent any weather packets the latest 10 day(s).
| Time | Temp. | Humidity | Pressure | Rain* | Wind** | Luminosity | Snow |
|---|---|---|---|---|---|---|---|
| 1777587256 | 11.11° C | 33% | 1047.4 hPa | 0 mm | - | 142 W/m² | - |
| 1777586952 | 11.67° C | 35% | 1047.3 hPa | 0 mm | - | 135 W/m² | - |
| 1777586648 | 11.67° C | 33% | 1047.5 hPa | 0 mm | - | 152 W/m² | - |
| 1777586344 | 12.78° C | 31% | 1047.5 hPa | 0 mm | - | 174 W/m² | - |
| 1777586043 | 12.78° C | 33% | 1047.5 hPa | 0 mm | - | 215 W/m² | - |
| 1777585741 | 12.22° C | 32% | 1047.6 hPa | 0 mm | - | 675 W/m² | - |
| 1777585436 | 12.22° C | 31% | 1047.6 hPa | 0 mm | - | 660 W/m² | - |
| 1777585132 | 12.22° C | 32% | 1047.5 hPa | 0 mm | - | 206 W/m² | - |
| 1777584828 | 11.11° C | 34% | 1047.6 hPa | 0 mm | - | 724 W/m² | - |
| 1777584526 | 11.11° C | 34% | 1047.9 hPa | 0 mm | - | 743 W/m² | - |
| 1777584223 | 11.67° C | 31% | 1047.6 hPa | 0 mm | - | 129 W/m² | - |
| 1777583922 | 12.22° C | 31% | 1047.7 hPa | 0 mm | - | 121 W/m² | - |
| 1777583618 | 12.78° C | 30% | 1047.8 hPa | 0 mm | - | 181 W/m² | - |
| 1777583317 | 11.67° C | 32% | 1047.8 hPa | 0 mm | - | 655 W/m² | - |
| 1777583017 | 11.67° C | 33% | 1047.9 hPa | 0 mm | - | 166 W/m² | - |
| 1777582714 | 11.11° C | 32% | 1048 hPa | 0 mm | - | 827 W/m² | - |
| 1777582409 | 11.67° C | 30% | 1047.8 hPa | 0 mm | - | 265 W/m² | - |
| 1777582109 | 12.78° C | 31% | 1048 hPa | 0 mm | - | 849 W/m² | - |
| 1777581804 | 12.78° C | 29% | 1048.2 hPa | 0 mm | - | 530 W/m² | - |
| 1777581502 | 12.22° C | 30% | 1047.9 hPa | 0 mm | - | 918 W/m² | - |
| 1777581198 | 12.22° C | 32% | 1048 hPa | 0 mm | - | 274 W/m² | - |
| 1777580892 | 12.22° C | 30% | 1048 hPa | 0 mm | - | 856 W/m² | - |
| 1777580592 | 12.78° C | 32% | 1048.3 hPa | 0 mm | - | 319 W/m² | - |
| 1777580288 | 12.22° C | 30% | 1048.2 hPa | 0 mm | - | 864 W/m² | - |
| 1777579986 | 12.22° C | 34% | 1048.4 hPa | 0 mm | - | 889 W/m² | - |
* Rain latest hour (hover to see other rain measurements)
** Current wind speed in m/s (hover to see current wind gust speed)